"startDT [UTC]","vpos","CH4 [ppm]","stdev(CH4) [ppm]","CO2 [ppm]","stdev(CO2) [ppm]","H2O_reported [%]","stdev(H2O_reported)","CavityPressure [torr]","CavityTemp [C]","OutletValve","CH4_dry [ppm]","CO2_dry [ppm]","DasTemp [C]","EtalonTemp [C]","WarmBoxTemp [C]","MPVPosition","T_ECpre [C]","T_EC1 [C]","T_EC2 [C]","p_inlet [hPa]","p_in [hPa]","p_out [hPa]","T_inlet [C]","RH_inlet [%]","dwpt_inlet [C]","T_vent [C]","RH_vent [%]","dwpt_vent [C]","flow_vent [l min-1]","flow_inlet [l min-1]","dwpt_sample [C]","T_room [C]"
2016-12-12 00:00:00,0.0,1.97381,0.00033,412.093,0.036,0.1078,0.0017,139.999,45.000,31545.54418,1.97589,412.627,32.814,45.072,45.000,0.00,0.06,-272.87,-272.91,-4,527,-945,18.4,4.0,-24.5,18.8,4.0,-24.2,0.48,2.03,-20.8,24.9
2016-12-12 00:01:00,0.0,1.97385,0.00045,412.107,0.038,0.1069,0.0018,139.999,45.000,31546.33356,1.97594,412.637,32.809,45.073,45.000,0.00,0.06,-272.86,-272.90,-4,527,-945,18.4,4.0,-24.5,18.8,4.0,-24.2,0.48,1.93,-20.8,24.9
2016-12-12 00:02:00,0.0,1.97371,0.00026,412.117,0.041,0.1078,0.0015,140.001,45.000,31548.90858,1.97581,412.651,32.802,45.073,45.000,0.00,0.07,-272.86,-272.90,-4,527,-945,18.5,4.0,-24.5,18.8,4.0,-24.2,0.48,1.84,-20.8,24.9
2016-12-12 00:03:00,0.0,1.97393,0.00035,412.146,0.029,0.1074,0.0022,140.000,45.000,31547.94594,1.97600,412.679,32.812,45.073,45.000,0.00,0.06,-272.88,-272.91,-4,527,-945,18.4,4.0,-24.4,18.8,4.0,-24.2,0.48,1.91,-20.8,24.9
2016-12-12 00:04:00,0.0,1.97379,0.00025,412.126,0.036,0.1085,0.0015,139.999,45.000,31548.35904,1.97593,412.665,32.814,45.073,45.000,0.00,0.07,-272.87,-272.89,-5,527,-945,18.4,4.0,-24.4,18.8,4.0,-24.1,0.48,2.02,-20.8,24.9
2016-12-12 00:05:00,0.0,1.97391,0.00039,412.135,0.035,0.1084,0.0016,140.002,45.000,31549.10373,1.97600,412.675,32.850,45.072,45.000,0.00,0.07,-272.86,-272.90,-4,527,-945,18.4,4.0,-24.4,18.8,4.0,-24.1,0.48,1.96,-20.8,24.9
2016-12-12 00:06:00,0.0,1.97395,0.00037,412.109,0.033,0.1085,0.0016,140.000,45.000,31549.79224,1.97605,412.648,32.873,45.072,45.000,0.00,0.06,-272.87,-272.90,-4,527,-945,18.4,4.0,-24.4,18.8,4.0,-24.1,0.48,1.84,-20.8,24.9
2016-12-12 00:07:00,0.0,1.97385,0.00038,412.095,0.037,0.1079,0.0016,140.001,45.000,31550.84857,1.97597,412.632,32.875,45.072,45.000,0.00,0.06,-272.87,-272.89,-4,528,-945,18.4,4.0,-24.4,18.8,4.0,-24.1,0.48,1.88,-20.8,24.9
2016-12-12 00:08:00,0.0,1.97367,0.00029,412.074,0.033,0.1086,0.0017,140.002,45.000,31552.77148,1.97578,412.613,32.875,45.072,45.000,0.00,0.06,-272.87,-272.89,-4,528,-945,18.5,4.0,-24.4,18.8,4.0,-24.1,0.48,2.00,-20.8,24.9
2016-12-12 00:09:00,0.0,1.97389,0.00038,412.090,0.027,0.1067,0.0014,140.000,45.000,31552.97137,1.97598,412.619,32.876,45.072,45.000,0.00,0.06,-272.87,-272.90,-4,528,-945,18.5,4.0,-24.5,18.8,4.0,-24.2,0.48,2.00,-20.8,24.9
2016-12-12 00:10:00,0.0,1.97405,0.00036,412.067,0.041,0.1076,0.0013,139.999,45.000,31552.50182,1.97612,412.601,32.873,45.072,45.000,0.00,0.06,-272.87,-272.91,-4,527,-946,18.4,4.0,-24.5,18.8,4.0,-24.2,0.48,1.87,-20.8,24.9
2016-12-12 00:11:00,0.0,1.97384,0.00029,412.114,0.033,0.1082,0.0017,139.999,45.000,31554.29216,1.97597,412.651,32.872,45.073,45.000,0.00,0.07,-272.86,-272.90,-4,527,-946,18.4,4.0,-24.4,18.8,4.0,-24.1,0.48,1.86,-20.8,24.9
2016-12-12 00:12:00,0.0,1.97390,0.00031,412.121,0.030,0.1079,0.0020,140.001,45.000,31555.86118,1.97598,412.658,32.868,45.073,45.000,0.00,0.06,-272.86,-272.90,-4,528,-946,18.5,4.0,-24.4,18.8,4.0,-24.1,0.48,1.96,-20.8,25.0
2016-12-12 00:13:00,0.0,1.97391,0.00038,412.108,0.024,0.1080,0.0014,140.001,45.000,31556.77325,1.97602,412.643,32.879,45.073,45.000,0.00,0.06,-272.87,-272.91,-4,528,-946,18.4,4.0,-24.4,18.8,4.0,-24.1,0.49,2.02,-20.8,25.0
2016-12-12 00:14:00,0.0,1.97370,0.00036,412.126,0.033,0.1085,0.0017,140.002,45.000,31557.87086,1.97580,412.664,32.916,45.073,45.000,0.00,0.06,-272.86,-272.90,-4,527,-946,18.5,4.0,-24.4,18.8,4.0,-24.1,0.49,1.92,-20.8,25.0
2016-12-12 00:15:00,0.0,1.97404,0.00026,412.144,0.038,0.1082,0.0016,140.000,45.000,31556.63770,1.97613,412.681,32.940,45.073,45.000,0.00,0.07,-272.86,-272.90,-4,527,-946,18.5,4.0,-24.4,18.8,4.0,-24.1,0.48,1.84,-20.8,25.0
2016-12-12 00:16:00,0.0,1.97426,0.00038,412.145,0.036,0.1087,0.0023,140.000,45.000,31558.79820,1.97635,412.685,32.971,45.073,45.000,0.00,0.06,-272.87,-272.90,-4,528,-946,18.5,4.0,-24.3,18.9,4.0,-24.0,0.48,1.91,-20.8,25.0
2016-12-12 00:17:00,0.0,1.97431,0.00030,412.177,0.039,0.1084,0.0014,139.998,45.000,31560.12460,1.97645,412.715,33.000,45.072,45.000,0.00,0.06,-272.87,-272.90,-4,528,-946,18.5,4.0,-24.3,18.8,4.0,-24.1,0.48,2.02,-20.8,25.0
2016-12-12 00:18:00,0.0,1.97400,0.00034,412.140,0.027,0.1078,0.0016,140.000,45.000,31561.79365,1.97609,412.675,33.013,45.072,45.000,0.00,0.07,-272.86,-272.90,-4,528,-946,18.5,4.0,-24.4,18.8,4.0,-24.0,0.48,1.96,-20.8,25.0
2016-12-12 00:19:00,0.0,1.97382,0.00033,412.135,0.029,0.1076,0.0018,140.002,45.000,31564.45539,1.97591,412.669,33.047,45.072,45.000,0.00,0.06,-272.87,-272.90,-4,528,-946,18.5,4.0,-24.4,18.9,4.0,-24.1,0.48,1.85,-20.7,25.0
2016-12-12 00:20:00,0.0,1.97372,0.00040,412.128,0.027,0.1071,0.0018,140.002,45.001,31567.43339,1.97582,412.660,33.062,45.072,45.000,0.00,0.06,-272.87,-272.90,-4,527,-946,18.5,4.0,-24.5,18.9,4.0,-24.1,0.48,1.89,-20.7,25.0
2016-12-12 00:21:00,0.0,1.97360,0.00034,412.132,0.025,0.1075,0.0018,140.000,45.000,31569.30967,1.97569,412.665,33.064,45.072,45.000,0.00,0.06,-272.87,-272.89,-4,528,-946,18.5,4.0,-24.5,18.9,4.0,-24.1,0.48,2.00,-20.7,25.0
2016-12-12 00:22:00,0.0,1.97398,0.00028,412.186,0.038,0.1076,0.0013,140.000,45.000,31570.63212,1.97603,412.720,33.063,45.072,45.000,0.00,0.06,-272.86,-272.89,-4,528,-946,18.5,3.9,-24.5,18.9,4.0,-24.2,0.48,1.99,-20.7,25.1
2016-12-12 00:23:00,0.0,1.97418,0.00040,412.210,0.026,0.1075,0.0014,140.003,45.000,31571.01472,1.97629,412.743,33.066,45.073,45.000,0.00,0.06,-272.87,-272.90,-4,528,-946,18.6,4.0,-24.4,18.9,4.0,-24.1,0.48,1.88,-20.7,25.1
2016-12-12 00:24:00,0.0,1.97407,0.00030,412.184,0.029,0.1071,0.0017,140.002,45.000,31573.71568,1.97617,412.716,33.096,45.073,45.000,0.00,0.06,-272.87,-272.90,-4,528,-946,18.6,3.9,-24.4,18.9,4.0,-24.2,0.48,1.86,-20.7,25.1
2016-12-12 00:25:00,0.0,1.97415,0.00039,412.196,0.029,0.1079,0.0017,140.002,45.000,31574.06464,1.97621,412.731,33.127,45.073,45.000,0.00,0.07,-272.86,-272.90,-4,528,-946,18.6,4.0,-24.3,18.9,4.0,-24.1,0.48,1.97,-20.7,25.1
2016-12-12 00:26:00,0.0,1.97428,0.00047,412.204,0.033,0.1084,0.0018,140.001,45.000,31571.73619,1.97637,412.742,33.182,45.073,45.000,0.00,0.06,-272.87,-272.91,-4,528,-946,18.6,4.0,-24.3,18.9,4.0,-24.1,0.48,2.01,-20.7,25.1
2016-12-12 00:27:00,0.0,1.97412,0.00029,412.197,0.027,0.1090,0.0018,139.999,45.000,31573.14492,1.97625,412.739,33.190,45.073,45.000,0.00,0.06,-272.86,-272.90,-4,528,-946,18.6,4.0,-24.3,18.9,4.0,-24.0,0.48,1.91,-20.7,25.1
2016-12-12 00:28:00,0.0,1.97412,0.00030,412.186,0.033,0.1078,0.0019,140.002,45.000,31576.21613,1.97623,412.721,33.195,45.072,45.000,0.00,0.06,-272.86,-272.89,-4,528,-946,18.6,4.0,-24.4,18.9,4.0,-24.1,0.48,1.85,-20.7,25.1
2016-12-12 00:29:00,0.0,1.97412,0.00042,412.172,0.032,0.1075,0.0013,139.998,45.000,31574.36252,1.97620,412.705,33.196,45.072,45.000,0.00,0.07,-272.87,-272.89,-4,528,-946,18.6,4.0,-24.4,18.9,4.0,-24.1,0.48,1.93,-20.7,25.1
2016-12-12 00:30:00,0.0,1.97415,0.00031,412.204,0.031,0.1069,0.0016,140.000,45.000,31576.11392,1.97624,412.734,33.241,45.073,45.000,0.00,0.06,-272.87,-272.91,-4,528,-946,18.6,3.9,-24.4,18.9,4.0,-24.1,0.48,2.02,-20.6,25.1
2016-12-12 00:31:00,0.0,1.97427,0.00044,412.190,0.033,0.1065,0.0015,140.002,45.001,31578.43553,1.97634,412.718,33.259,45.073,45.000,0.00,0.06,-272.87,-272.91,-4,528,-946,18.6,3.9,-24.5,19.0,4.0,-24.2,0.48,1.95,-20.6,25.1
2016-12-12 00:32:00,0.0,1.97430,0.00035,412.187,0.036,0.1058,0.0015,140.000,45.000,31580.61753,1.97637,412.713,33.305,45.073,45.000,0.00,0.07,-272.86,-272.90,-4,528,-946,18.6,3.9,-24.5,19.0,3.9,-24.2,0.48,1.84,-20.6,25.2
2016-12-12 00:33:00,0.0,1.97404,0.00028,412.164,0.034,0.1062,0.0018,140.002,45.000,31583.48429,1.97611,412.693,33.313,45.073,45.000,0.00,0.06,-272.87,-272.90,-4,528,-946,18.6,3.9,-24.6,19.0,3.9,-24.3,0.48,1.90,-20.6,25.2
2016-12-12 00:34:00,0.0,1.97376,0.00039,412.166,0.024,0.1060,0.0018,140.003,45.000,31586.68337,1.97583,412.691,33.333,45.073,45.000,0.00,0.06,-272.87,-272.90,-4,528,-946,18.6,3.9,-24.5,19.0,3.9,-24.2,0.48,2.01,-20.6,25.2
2016-12-12 00:35:00,0.0,1.97386,0.00030,412.177,0.039,0.1065,0.0017,140.001,45.001,31587.57979,1.97592,412.707,33.364,45.073,45.000,0.00,0.07,-272.86,-272.89,-4,528,-946,18.7,3.9,-24.5,19.0,3.9,-24.2,0.48,1.98,-20.6,25.2
2016-12-12 00:36:00,0.0,1.97415,0.00039,412.169,0.040,0.1069,0.0016,139.999,45.000,31586.38629,1.97620,412.699,33.375,45.072,45.000,0.00,0.06,-272.86,-272.90,-4,528,-946,18.7,3.9,-24.5,19.0,3.9,-24.2,0.48,1.86,-20.6,25.2
2016-12-12 00:37:00,0.0,1.97410,0.00035,412.398,0.385,0.1082,0.0018,140.001,45.000,31587.25492,1.97624,412.904,33.402,45.072,45.000,0.00,0.06,-272.87,-272.90,-4,528,-947,18.7,3.9,-24.4,19.0,4.0,-24.1,0.48,1.85,-20.6,25.2
2016-12-12 00:38:00,0.0,1.97433,0.00035,412.665,0.700,0.1085,0.0017,139.999,45.000,31589.11600,1.97641,413.233,33.434,45.072,45.000,0.00,0.06,-272.86,-272.90,-5,528,-947,18.7,3.9,-24.4,19.0,4.0,-24.1,0.48,1.99,-20.6,25.2
2016-12-12 00:39:00,0.0,1.97439,0.00043,412.262,0.034,0.1075,0.0014,140.000,45.000,31588.67003,1.97648,412.796,33.439,45.072,45.000,0.00,0.07,-272.86,-272.90,-5,528,-947,18.7,3.9,-24.5,19.1,3.9,-24.1,0.48,2.01,-20.6,25.3
2016-12-12 00:40:00,0.0,1.97445,0.00031,412.267,0.036,0.1072,0.0015,140.003,45.000,31591.88413,1.97654,412.798,33.466,45.072,45.000,0.00,0.06,-272.87,-272.91,-4,528,-947,18.7,3.9,-24.5,19.1,3.9,-24.1,0.48,1.89,-20.6,25.3
2016-12-12 00:41:00,0.0,1.97455,0.00024,412.277,0.027,0.1080,0.0012,140.003,45.000,31594.70297,1.97665,412.813,33.496,45.072,45.000,0.00,0.06,-272.86,-272.90,-4,528,-947,18.8,3.9,-24.4,19.1,3.9,-24.1,0.48,1.83,-20.5,25.3
2016-12-12 00:42:00,0.0,1.97432,0.00028,412.268,0.029,0.1087,0.0019,140.002,45.000,31595.98760,1.97643,412.808,33.504,45.072,45.000,0.00,0.07,-272.86,-272.89,-4,528,-947,18.8,3.9,-24.4,19.1,4.0,-24.0,0.48,1.94,-20.5,25.3
2016-12-12 00:43:00,0.0,1.97455,0.00037,412.285,0.027,0.1086,0.0014,140.000,45.000,31593.28088,1.97668,412.824,33.541,45.072,45.000,0.00,0.06,-272.87,-272.90,-4,528,-946,18.8,3.9,-24.4,19.1,4.0,-24.0,0.48,2.02,-20.5,25.3
2016-12-12 00:44:00,0.0,1.97462,0.00032,412.326,0.044,0.1078,0.0020,140.001,45.000,31595.21716,1.97668,412.860,33.558,45.072,45.000,0.00,0.07,-272.87,-272.91,-4,528,-947,18.8,3.9,-24.4,19.1,3.9,-24.1,0.48,1.93,-20.5,25.3
2016-12-12 00:45:00,0.0,1.97483,0.00055,412.388,0.031,0.1085,0.0014,139.999,45.000,31597.36236,1.97695,412.925,33.563,45.072,45.000,0.00,0.07,-272.86,-272.90,-4,528,-947,18.8,3.9,-24.4,19.2,3.9,-24.1,0.47,1.83,-20.5,25.3
2016-12-12 00:46:00,0.0,1.97502,0.00035,412.444,0.033,0.1092,0.0017,140.000,45.000,31593.42286,1.97713,412.986,33.562,45.072,45.000,0.00,0.07,-272.86,-272.90,-4,528,-947,18.9,3.9,-24.3,19.2,3.9,-24.1,0.47,1.89,-20.4,25.3
2016-12-12 00:47:00,0.0,1.97462,0.00034,412.424,0.046,0.1107,0.0017,140.001,45.000,31592.03597,1.97682,412.975,33.565,45.072,44.999,0.00,0.06,-272.87,-272.90,-4,528,-947,18.9,4.0,-24.2,19.2,4.0,-24.0,0.48,2.00,-20.4,25.4
2016-12-12 00:48:00,0.0,1.97468,0.00052,412.422,0.048,0.1113,0.0018,139.997,45.000,31589.27609,1.97681,412.973,33.569,45.072,44.999,0.00,0.07,-272.86,-272.90,-4,528,-947,18.9,4.0,-24.1,19.2,4.0,-23.9,0.48,1.98,-20.3,25.4
2016-12-12 00:49:00,0.0,1.97484,0.00040,412.435,0.043,0.1109,0.0018,140.001,45.000,31589.30238,1.97699,412.986,33.603,45.072,45.000,0.00,0.07,-272.87,-272.90,-5,528,-947,18.9,4.0,-24.1,19.2,4.0,-23.9,0.47,1.86,-20.3,25.4
2016-12-12 00:50:00,0.0,1.97484,0.00027,412.432,0.031,0.1112,0.0018,139.998,45.000,31587.06750,1.97701,412.985,33.623,45.072,45.000,0.00,0.06,-272.87,-272.91,-5,528,-947,18.9,4.0,-24.1,19.2,4.0,-23.9,0.47,1.84,-20.2,25.4
2016-12-12 00:51:00,0.0,1.97472,0.00040,412.415,0.041,0.1093,0.0018,140.000,45.000,31589.15868,1.97685,412.957,33.625,45.072,45.000,0.00,0.07,-272.87,-272.90,-5,528,-947,18.9,3.9,-24.2,19.2,4.0,-23.9,0.47,1.97,-20.2,25.4
2016-12-12 00:52:00,0.0,1.97484,0.00044,412.442,0.021,0.1078,0.0020,140.001,45.001,31591.54254,1.97695,412.978,33.664,45.072,45.000,0.00,0.06,-272.86,-272.89,-5,528,-947,18.9,3.9,-24.4,19.2,3.9,-24.0,0.47,2.01,-20.1,25.4
2016-12-12 00:53:00,0.0,1.97469,0.00036,412.404,0.040,0.1091,0.0016,140.003,45.001,31594.89620,1.97683,412.947,33.701,45.073,45.000,0.00,0.07,-272.86,-272.90,-4,528,-947,18.9,3.9,-24.3,19.2,3.9,-24.0,0.48,1.89,-20.0,25.4
2016-12-12 00:54:00,0.0,1.97490,0.00044,412.469,0.040,0.1094,0.0012,139.999,45.000,31597.10926,1.97699,413.010,33.744,45.073,45.000,0.00,0.07,-272.87,-272.91,-4,528,-947,19.0,3.9,-24.3,19.2,3.9,-24.0,0.47,1.84,-19.9,25.5
2016-12-12 00:55:00,0.0,1.97509,0.00038,412.485,0.035,0.1096,0.0017,140.001,45.001,31599.18972,1.97722,413.030,33.761,45.072,45.000,0.00,0.07,-272.86,-272.90,-5,528,-947,19.0,3.9,-24.2,19.3,4.0,-24.0,0.47,1.92,-19.8,25.4
2016-12-12 00:56:00,0.0,1.97494,0.00036,412.488,0.026,0.1118,0.0009,140.000,45.000,31600.30446,1.97715,413.043,33.815,45.072,45.000,0.00,0.07,-272.86,-272.90,-5,528,-947,19.0,4.0,-24.0,19.3,4.0,-23.8,0.47,2.01,-19.7,25.5
2016-12-12 00:57:00,0.0,1.97484,0.00034,412.454,0.021,0.1125,0.0017,140.000,45.000,31602.22786,1.97702,413.013,33.857,45.072,45.000,0.00,0.06,-272.87,-272.91,-5,529,-947,19.0,4.0,-24.0,19.3,4.0,-23.7,0.48,1.95,-19.7,25.5
2016-12-12 00:58:00,0.0,1.97499,0.00033,412.483,0.029,0.1122,0.0019,140.002,45.001,31603.94896,1.97714,413.041,33.876,45.072,45.000,0.00,0.07,-272.87,-272.90,-4,529,-947,19.0,4.0,-24.0,19.3,4.0,-23.7,0.48,1.84,-19.6,25.5
2016-12-12 00:59:00,0.0,1.97495,0.00044,412.480,0.021,0.1104,0.0019,140.000,45.000,31604.38794,1.97709,413.028,33.914,45.072,45.000,0.00,0.07,-272.86,-272.89,-4,528,-947,19.0,4.0,-24.1,19.3,4.0,-23.8,0.48,1.89,-19.6,25.5
2016-12-12 01:00:00,0.0,1.97515,0.00044,412.482,0.038,0.1105,0.0016,140.001,45.000,31603.58991,1.97731,413.032,33.926,45.072,45.000,0.00,0.07,-272.87,-272.90,-4,528,-947,19.0,3.9,-24.2,19.3,4.0,-23.9,0.47,2.00,-19.6,25.5
2016-12-12 01:01:00,0.0,1.97518,0.00035,412.480,0.037,0.1100,0.0017,140.003,45.000,31604.46474,1.97733,413.026,33.909,45.072,45.000,0.00,0.07,-272.86,-272.90,-5,528,-947,19.0,3.9,-24.3,19.3,3.9,-23.9,0.47,1.98,-19.6,25.5
2016-12-12 01:02:00,0.0,1.97507,0.00049,412.482,0.037,0.1095,0.0022,140.002,45.000,31605.47021,1.97720,413.028,33.875,45.072,45.000,0.00,0.07,-272.86,-272.89,-5,529,-947,19.0,3.9,-24.3,19.3,3.9,-24.0,0.47,1.87,-19.5,25.5
2016-12-12 01:03:00,0.0,1.97506,0.00040,412.474,0.041,0.1103,0.0016,140.000,45.000,31608.63458,1.97720,413.020,33.874,45.073,45.001,0.00,0.07,-272.86,-272.90,-5,529,-947,19.0,3.9,-24.3,19.3,3.9,-24.0,0.47,1.85,-19.5,25.6
2016-12-12 01:04:00,0.0,1.97495,0.00031,412.491,0.028,0.1099,0.0017,140.001,45.000,31609.69441,1.97710,413.037,33.876,45.073,45.001,0.00,0.06,-272.87,-272.90,-5,529,-947,19.1,3.9,-24.2,19.3,3.9,-24.0,0.47,1.96,-19.5,25.5
2016-12-12 01:05:00,0.0,1.97540,0.00041,412.557,0.063,0.1095,0.0020,140.001,45.001,31611.32985,1.97753,413.099,33.908,45.073,45.001,0.00,0.07,-272.86,-272.90,-4,528,-947,19.0,3.9,-24.2,19.4,3.9,-23.9,0.47,2.01,-19.4,25.6
2016-12-12 01:06:00,0.0,1.97538,0.00039,412.538,0.038,0.1120,0.0019,139.999,45.000,31609.31366,1.97756,413.096,33.938,45.073,45.001,0.00,0.07,-272.85,-272.90,-5,528,-947,19.0,4.0,-24.1,19.4,4.0,-23.9,0.47,1.91,-19.4,25.6
2016-12-12 01:07:00,0.0,1.97498,0.00037,412.505,0.044,0.1109,0.0013,139.999,45.000,31612.61203,1.97716,413.058,33.948,45.073,45.000,0.00,0.07,-272.87,-272.91,-5,528,-947,19.1,4.0,-24.0,19.4,4.0,-23.8,0.47,1.83,-19.4,25.6
2016-12-12 01:08:00,0.0,1.97511,0.00037,412.469,0.031,0.1107,0.0019,140.002,45.000,31614.44121,1.97724,413.018,33.973,45.073,45.000,0.00,0.07,-272.86,-272.90,-5,529,-947,19.1,4.0,-24.1,19.4,4.0,-23.8,0.47,1.90,-19.4,25.6
2016-12-12 01:09:00,0.0,1.97526,0.00034,412.458,0.033,0.1105,0.0017,140.000,45.000,31612.59743,1.97741,413.006,33.998,45.072,45.000,0.00,0.07,-272.87,-272.91,-5,529,-947,19.1,3.9,-24.1,19.4,4.0,-23.8,0.47,2.00,-19.4,25.6
2016-12-12 01:10:00,0.0,1.97547,0.00039,412.516,0.045,0.1089,0.0016,140.001,45.000,31613.74181,1.97758,413.056,34.002,45.072,45.000,0.00,0.07,-272.87,-272.91,-5,528,-948,19.1,3.9,-24.2,19.4,3.9,-23.9,0.47,1.97,-19.4,25.6
2016-12-12 01:11:00,0.0,1.97556,0.00043,412.564,0.044,0.1099,0.0023,140.001,45.000,31616.27859,1.97771,413.110,34.003,45.072,45.000,0.00,0.07,-272.87,-272.90,-4,529,-947,19.1,3.9,-24.2,19.4,3.9,-23.9,0.47,1.86,-19.4,25.6
2016-12-12 01:12:00,0.0,1.97530,0.00036,412.466,0.038,0.1116,0.0016,140.001,45.000,31617.45427,1.97747,413.021,34.043,45.072,45.000,0.00,0.07,-272.87,-272.89,-4,529,-947,19.1,3.9,-24.1,19.5,4.0,-23.8,0.47,1.85,-19.4,25.7
2016-12-12 01:13:00,0.0,1.97552,0.00030,412.481,0.038,0.1107,0.0020,140.001,45.000,31616.83757,1.97766,413.031,34.065,45.072,45.000,0.00,0.07,-272.87,-272.89,-5,529,-947,19.1,3.9,-24.1,19.4,3.9,-23.9,0.47,1.95,-19.4,25.7
2016-12-12 01:14:00,0.0,1.97560,0.00028,412.507,0.035,0.1105,0.0014,140.001,45.000,31617.53661,1.97776,413.055,34.070,45.072,45.000,0.00,0.07,-272.87,-272.91,-5,529,-948,19.1,3.9,-24.2,19.5,3.9,-23.9,0.47,2.01,-19.4,25.7
2016-12-12 01:15:00,0.0,1.97572,0.00043,412.484,0.034,0.1101,0.0021,139.999,45.000,31616.36395,1.97783,413.031,34.068,45.072,45.000,0.00,0.07,-272.86,-272.90,-5,529,-948,19.2,3.9,-24.2,19.5,3.9,-23.9,0.47,1.91,-19.4,25.7
2016-12-12 01:16:00,0.0,1.97603,0.00031,412.519,0.030,0.1098,0.0018,140.000,45.000,31616.62897,1.97820,413.064,34.064,45.072,45.000,0.00,0.07,-272.86,-272.89,-5,529,-948,19.2,3.9,-24.2,19.5,3.9,-23.9,0.47,1.83,-19.4,25.7
2016-12-12 01:17:00,0.0,1.97578,0.00038,412.494,0.026,0.1107,0.0018,140.000,45.000,31619.30403,1.97791,413.044,34.067,45.072,45.000,0.00,0.07,-272.87,-272.90,-5,529,-948,19.2,3.9,-24.2,19.5,3.9,-23.9,0.47,1.89,-19.4,25.7
2016-12-12 01:18:00,0.0,1.97602,0.00038,412.496,0.025,0.1103,0.0016,140.005,45.000,31619.66394,1.97816,413.045,34.058,45.072,45.000,0.00,0.07,-272.85,-272.93,-5,529,-948,19.2,3.9,-24.2,19.5,3.9,-23.8,0.47,1.98,-19.3,25.8
2016-12-12 01:19:00,0.0,1.97610,0.00041,412.550,0.032,0.1109,0.0016,140.002,45.000,31618.53823,1.97829,413.100,34.056,45.072,45.000,0.00,0.07,-272.86,-272.90,-5,529,-948,19.2,3.9,-24.2,19.5,3.9,-23.8,0.47,1.97,-19.4,25.8
2016-12-12 01:20:00,0.0,1.97583,0.00040,412.533,0.039,0.1113,0.0013,139.999,45.000,31619.50833,1.97800,413.087,34.058,45.073,45.000,0.00,0.07,-272.86,-272.91,-5,529,-948,19.2,3.9,-24.2,19.5,3.9,-23.8,0.47,1.85,-19.4,25.8
2016-12-12 01:21:00,0.0,1.97575,0.00030,412.596,0.032,0.1110,0.0022,140.001,45.000,31621.53224,1.97791,413.146,34.063,45.073,45.001,0.00,0.07,-272.87,-272.91,-5,529,-948,19.2,3.9,-24.1,19.5,3.9,-23.8,0.47,1.84,-19.4,25.8
2016-12-12 01:22:00,0.0,1.97590,0.00038,412.585,0.045,0.1115,0.0020,139.999,45.000,31620.33652,1.97808,413.140,34.063,45.073,45.001,0.00,0.07,-272.86,-272.90,-5,529,-948,19.2,3.9,-24.1,19.6,3.9,-23.8,0.47,1.94,-19.3,25.8
2016-12-12 01:23:00,0.0,1.97599,0.00047,412.545,0.032,0.1115,0.0014,140.004,45.000,31621.36855,1.97815,413.101,34.091,45.073,45.000,0.00,0.07,-272.87,-272.90,-5,529,-948,19.2,3.9,-24.1,19.6,3.9,-23.8,0.47,2.00,-19.3,25.8
2016-12-12 01:24:00,0.0,1.97596,0.00042,412.521,0.035,0.1105,0.0016,140.001,45.000,31622.44356,1.97811,413.070,34.125,45.072,45.000,0.00,0.07,-272.87,-272.91,-5,529,-948,19.3,3.9,-24.2,19.6,3.9,-23.8,0.47,1.91,-19.3,25.8
2016-12-12 01:25:00,0.0,1.97631,0.00041,412.505,0.035,0.1106,0.0016,140.000,45.000,31623.21090,1.97846,413.054,34.125,45.072,45.000,0.00,0.07,-272.87,-272.91,-5,529,-948,19.3,3.9,-24.2,19.6,3.9,-23.9,0.47,1.82,-19.3,25.8
2016-12-12 01:26:00,0.0,1.97606,0.00048,412.551,0.049,0.1108,0.0012,139.999,45.000,31623.86192,1.97823,413.102,34.125,45.072,45.000,0.00,0.07,-272.87,-272.89,-5,529,-948,19.3,3.9,-24.2,19.6,3.9,-23.8,0.46,1.88,-19.4,25.8
2016-12-12 01:27:00,0.0,1.97593,0.00024,412.545,0.028,0.1116,0.0016,139.998,45.000,31624.36718,1.97811,413.100,34.124,45.072,45.000,0.00,0.07,-272.88,-272.90,-5,529,-948,19.3,3.9,-24.2,19.6,3.9,-23.8,0.46,1.98,-19.3,25.8
2016-12-12 01:28:00,0.0,1.97601,0.00038,412.578,0.056,0.1104,0.0012,140.002,45.000,31626.11396,1.97817,413.127,34.125,45.072,45.000,0.00,0.07,-272.87,-272.90,-5,529,-948,19.3,3.9,-24.2,19.6,3.9,-23.8,0.47,1.97,-19.3,25.8
2016-12-12 01:29:00,0.0,1.97612,0.00029,412.584,0.048,0.1111,0.0012,140.001,45.000,31623.25718,1.97826,413.135,34.136,45.072,45.000,0.00,0.07,-272.86,-272.89,-5,529,-948,19.3,3.9,-24.2,19.6,3.9,-23.9,0.46,1.86,-19.3,25.9
2016-12-12 01:30:00,0.0,1.97610,0.00031,412.568,0.048,0.1105,0.0019,139.999,45.000,31623.46894,1.97826,413.119,34.142,45.072,45.000,0.00,0.07,-272.86,-272.91,-5,529,-948,19.3,3.9,-24.2,19.6,3.9,-23.8,0.46,1.82,-19.3,25.9
2016-12-12 01:31:00,0.0,1.97645,0.00040,412.576,0.042,0.1111,0.0015,140.000,45.000,31622.19847,1.97856,413.127,34.149,45.072,45.000,0.00,0.07,-272.87,-272.90,-5,529,-948,19.3,3.9,-24.1,19.6,3.9,-23.8,0.46,1.93,-19.3,25.9
2016-12-12 01:32:00,0.0,1.97663,0.00032,412.583,0.037,0.1098,0.0014,140.001,45.000,31625.02036,1.97879,413.127,34.169,45.072,45.000,0.00,0.06,-272.89,-272.89,-5,529,-948,19.3,3.8,-24.2,19.6,3.9,-23.9,0.46,1.99,-19.3,25.9
2016-12-12 01:33:00,0.0,1.97669,0.00027,412.644,0.043,0.1099,0.0013,140.001,45.000,31623.77118,1.97885,413.191,34.186,45.072,45.000,0.00,0.07,-272.91,-272.91,-5,529,-948,19.3,3.8,-24.2,19.7,3.9,-23.9,0.46,1.92,-19.3,25.9
2016-12-12 01:34:00,0.0,1.97688,0.00044,412.623,0.030,0.1104,0.0019,140.000,45.000,31625.36397,1.97900,413.172,34.188,45.072,45.000,0.00,0.06,-272.88,-272.92,-5,529,-947,19.3,3.8,-24.2,19.7,3.9,-23.9,0.46,1.82,-19.3,25.9
2016-12-12 01:35:00,0.0,1.97686,0.00039,412.652,0.046,0.1095,0.0016,140.001,45.000,31625.26367,1.97900,413.196,34.189,45.072,45.000,0.00,0.07,-272.87,-272.90,-5,529,-947,19.3,3.8,-24.2,19.7,3.9,-23.9,0.46,1.86,-19.3,25.9
2016-12-12 01:36:00,0.0,1.97672,0.00028,412.652,0.056,0.1109,0.0023,140.002,45.000,31626.40809,1.97888,413.204,34.189,45.072,45.000,0.00,0.07,-272.86,-272.90,-5,529,-948,19.3,3.9,-24.2,19.7,3.9,-23.9,0.46,1.96,-19.3,25.9
2016-12-12 01:37:00,0.0,1.97679,0.00036,412.720,0.033,0.1121,0.0013,140.002,45.000,31624.66416,1.97897,413.275,34.199,45.072,45.000,0.00,0.07,-272.86,-272.91,-5,529,-947,19.3,3.9,-24.1,19.7,3.9,-23.8,0.46,1.97,-19.3,26.0
2016-12-12 01:38:00,0.0,1.97687,0.00038,412.791,0.038,0.1120,0.0024,140.000,45.000,31624.12848,1.97905,413.347,34.230,45.072,45.000,0.00,0.07,-272.87,-272.90,-5,529,-947,19.4,3.9,-24.0,19.7,3.9,-23.7,0.46,1.87,-19.3,26.0
2016-12-12 01:39:00,0.0,1.97659,0.00039,412.777,0.035,0.1136,0.0021,140.002,45.000,31627.12594,1.97881,413.344,34.251,45.072,45.000,0.00,0.07,-272.86,-272.90,-5,529,-948,19.4,3.9,-23.9,19.7,4.0,-23.6,0.45,1.81,-19.3,26.0
2016-12-12 01:40:00,0.0,1.97672,0.00033,412.744,0.028,0.1135,0.0019,140.002,45.000,31627.96789,1.97892,413.307,34.251,45.072,45.000,0.00,0.07,-272.87,-272.90,-6,529,-948,19.4,4.0,-23.8,19.7,4.0,-23.6,0.45,1.88,-19.3,26.0
2016-12-12 01:41:00,0.0,1.97664,0.00035,412.722,0.045,0.1136,0.0020,140.001,45.000,31627.53228,1.97887,413.285,34.249,45.072,45.000,0.00,0.07,-272.88,-272.91,-5,529,-948,19.4,4.0,-23.9,19.7,4.0,-23.6,0.45,1.98,-19.3,26.0
2016-12-12 01:42:00,0.0,1.97666,0.00032,412.819,0.042,0.1138,0.0015,140.002,45.000,31627.39373,1.97887,413.387,34.250,45.072,45.000,0.00,0.07,-272.86,-272.90,-5,529,-948,19.4,4.0,-23.8,19.7,4.0,-23.6,0.46,1.94,-19.3,26.0
2016-12-12 01:43:00,0.0,1.97685,0.00048,412.731,0.037,0.1147,0.0015,140.000,45.000,31625.73911,1.97905,413.302,34.241,45.072,45.000,0.00,0.07,-272.87,-272.90,-5,529,-948,19.4,4.0,-23.8,19.7,4.0,-23.5,0.46,1.84,-19.3,26.0
2016-12-12 01:44:00,0.0,1.97709,0.00042,412.735,0.033,0.1150,0.0021,140.000,45.000,31625.81224,1.97937,413.307,34.247,45.072,45.000,0.00,0.07,-272.88,-272.90,-5,529,-948,19.4,4.0,-23.8,19.7,4.0,-23.5,0.46,1.82,-19.3,26.0
2016-12-12 01:45:00,0.0,1.97674,0.00023,412.700,0.029,0.1136,0.0015,139.999,45.000,31626.40545,1.97894,413.265,34.250,45.072,45.000,0.00,0.07,-272.87,-272.91,-5,529,-947,19.4,4.0,-23.8,19.7,4.0,-23.5,0.46,1.93,-19.3,26.0